Location: Winter Haven
(28.0220°N, 81.7330°W)
Time: 22:40:14
(UTC-05:00)

Amateur Radio Satellites - All Passes

Search period start: 11 February 2016 22:10
Search period end: 12 February 2016 22:10
Location: Winter Haven, 28.0220°N, 81.7330°W

Satellite Date Start Highest point End Downlink Frequencies (MHz)
Time Altitude Azimuth
ANTELSAT 11 Feb 22:18:23 22:22:23 33° 99° (E) 22:26:28 437.575/2403.000
TIGRISAT 11 Feb 22:24:27 22:28:33 38° 100° (E) 22:32:41 435.000
AIST 1 11 Feb 22:24:38 22:28:49 50° 267° (W) 22:32:57
50 SAT 11 Feb 22:33:48 22:36:54 26° 74° (ENE) 22:40:01 437.505
HUMSAT D 11 Feb 22:35:48 22:39:41 42° 260° (W) 22:43:34 437.325/437.525
ZACube-1 11 Feb 22:38:34 22:39:30 11° 265° (W) 22:40:27 437.345
ISS 11 Feb 22:40:08 22:43:14 41° 45° (NE) 22:46:19 145.825
DELFI C3 11 Feb 22:49:06 22:49:49 10° 266° (W) 22:50:31 145.870
VELOX 1 11 Feb 22:53:35 22:57:48 43° 74° (ENE) 23:02:02 145.980
POLYITAN 1 11 Feb 22:58:12 23:01:17 20° 97° (E) 23:04:22 437.675
QB50P2 11 Feb 22:58:40 23:01:51 21° 97° (E) 23:05:01 145.880/145.840
Cosmos 2499 11 Feb 23:08:48 23:13:20 16° 278° (W) 23:17:43 435.465 / 435.565
UNISAT 6 11 Feb 23:09:44 23:14:01 52° 284° (WNW) 23:18:22 437.425
AISAT 11 Feb 23:10:23 23:14:51 75° 75° (ENE) 23:19:19 437.250
UKube-1 11 Feb 23:11:27 23:15:45 67° 76° (ENE) 23:20:04 .
SPROUT 11 Feb 23:18:14 23:21:27 21° 72° (ENE) 23:24:39 437.525
PHONESAT 2.4 11 Feb 23:23:33 23:26:50 76° 329° (NNW) 23:30:07 2401.200-2431.200
CUBEBUG 1 11 Feb 23:23:48 23:28:15 85° 80° (E) 23:32:42 437.445
POPSAT HIP 1 11 Feb 23:27:05 23:31:08 46° 100° (E) 23:35:10 437.405
DX 1 11 Feb 23:27:19 23:31:39 62° 259° (WSW) 23:35:59 434.975-435.025
NANOSAT C BR1 11 Feb 23:30:24 23:34:28 50° 100° (E) 23:38:31 145.865
DUCHIFAT 1 11 Feb 23:30:52 23:34:54 47° 100° (E) 23:38:55 145.980
QB50P1 11 Feb 23:39:24 23:43:36 70° 102° (ESE) 23:47:46 145.935-145.965
ESTCUBE 1 11 Feb 23:41:09 23:45:24 41° 261° (W) 23:49:41 437.505/2401.250
ANTELSAT 11 Feb 23:56:15 23:58:48 15° 290° (WNW) 00:01:21 437.575/2403.000
TIGRISAT 12 Feb 00:02:44 00:04:52 13° 290° (WNW) 00:07:02 435.000
50 SAT 12 Feb 00:09:20 00:10:53 12° 265° (W) 00:12:27 437.505
BUGSAT 1 12 Feb 00:23:09 00:27:09 70° 283° (WNW) 00:31:07 437.445
VELOX 1 12 Feb 00:32:50 00:34:22 12° 265° (W) 00:35:56 145.980
POLYITAN 1 12 Feb 00:33:41 00:36:58 22° 288° (WNW) 00:40:16 437.675
QB50P2 12 Feb 00:34:18 00:37:30 21° 288° (WNW) 00:40:43 145.880/145.840
TISAT 1 12 Feb 00:53:20 00:57:33 71° 258° (WSW) 01:01:46 437.305
SPROUT 12 Feb 00:53:51 00:57:14 22° 263° (W) 01:00:37 437.525
CUSAT 1 12 Feb 00:58:50 01:05:58 41° 90° (E) 01:13:25 437.405
ITUPSAT 1 12 Feb 00:59:19 01:02:32 18° 70° (ENE) 01:05:46 437.325
PHONESAT 2.4 12 Feb 01:02:21 01:04:27 16° 343° (NNW) 01:06:32 2401.200-2431.200
Oscar 19 12 Feb 01:04:49 01:09:03 26° 97° (E) 01:13:16 437.125/150
BEESAT 12 Feb 01:05:49 01:09:27 22° 71° (ENE) 01:13:06 436.000
JAS-2 12 Feb 01:28:48 01:33:27 30° 97° (E) 01:37:57 435.910
DANDE 12 Feb 01:50:29 01:57:44 60° 92° (E) 02:05:59 436.750
Gurwin Techsat 1B 12 Feb 01:53:41 01:58:16 29° 98° (E) 02:02:50 435.225
SWISSCUBE 12 Feb 01:57:10 02:01:55 81° 259° (W) 02:06:43 437.505
Cosmos 2491 12 Feb 02:07:47 02:16:11 49° 81° (E) 02:24:34 435.465 / 435.565
KKS-1 12 Feb 02:10:33 02:12:27 13° 68° (ENE) 02:14:21 437.445
BEESAT 3 12 Feb 02:11:46 02:15:37 51° 61° (ENE) 02:19:27 437.485
ITAMSAT 1 12 Feb 02:18:38 02:22:55 25° 98° (E) 02:27:09 435.822/435.867
ITUPSAT 1 12 Feb 02:35:49 02:40:04 32° 261° (W) 02:44:21 437.325
BEESAT 2 12 Feb 02:40:05 02:44:04 72° 63° (ENE) 02:47:59 435.950
CUSAT 1 12 Feb 02:41:11 02:48:10 35° 284° (WNW) 02:55:25 437.405
BEESAT 12 Feb 02:43:04 02:47:02 26° 262° (W) 02:51:02 436.000
Oscar 19 12 Feb 02:44:01 02:48:13 26° 289° (WNW) 02:52:23 437.125/150
YUBILEINY 12 Feb 02:47:34 02:55:53 50° 90° (E) 03:04:15 435.215
SO-50 12 Feb 03:11:01 03:14:13 18° 108° (ESE) 03:17:29 436.795
JAS-2 12 Feb 03:14:20 03:18:20 22° 292° (WNW) 03:22:12 435.910
AIST 2 12 Feb 03:17:00 03:19:22 15° 55° (NE) 03:21:43 435.215
STARS 12 Feb 03:21:02 03:25:15 46° 75° (ENE) 03:29:28 437.465
Gurwin Techsat 1B 12 Feb 03:33:45 03:38:01 25° 290° (WNW) 03:42:16 435.225
DANDE 12 Feb 03:35:11 03:41:09 24° 288° (WNW) 03:47:37 436.750
KKS-1 12 Feb 03:44:23 03:48:37 42° 261° (W) 03:52:50 437.445
MOZHAYETS 4 12 Feb 03:54:39 03:59:12 82° 76° (ENE) 04:03:47
ITAMSAT 1 12 Feb 03:57:50 04:02:14 28° 289° (WNW) 04:06:38 435.822/435.867
Cosmos 2491 12 Feb 04:05:32 04:12:28 27° 274° (W) 04:19:27 435.465 / 435.565
AO-7 12 Feb 04:10:57 04:19:16 74° 105° (ESE) 04:27:31 29.400- 29.500
PHONESAT 2.4 12 Feb 04:18:45 04:20:50 16° 17° (NNE) 04:22:54 2401.200-2431.200
M-CUBED/EXP-1 PRIME 12 Feb 04:34:40 04:38:11 64° 106° (ESE) 04:41:58 437.505
AUBIESAT-1 12 Feb 04:42:17 04:45:51 65° 105° (ESE) 04:49:41 437.475
CUBESAT XI-V 12 Feb 04:42:56 04:46:34 23° 71° (ENE) 04:50:12 437.345
YUBILEINY 12 Feb 04:45:43 04:52:48 27° 284° (WNW) 04:59:58 435.215
Cosmos 2504 12 Feb 04:45:48 04:54:06 64° 91° (E) 05:02:49 435.465 / 435.565
SO-50 12 Feb 04:49:52 04:54:22 37° 301° (WNW) 04:58:58 436.795
AIST 2 12 Feb 04:54:12 04:57:55 33° 248° (WSW) 05:01:36 435.215
STARS 12 Feb 05:01:16 05:01:45 10° 266° (W) 05:02:14 437.465
HORYU 2 12 Feb 05:09:21 05:13:42 55° 285° (WNW) 05:18:04 437.375
CUTE-I 12 Feb 05:53:21 05:57:40 24° 97° (E) 06:01:57 437.470
PHONESAT 2.4 12 Feb 05:55:10 05:58:26 77° 32° (NNE) 06:01:40 2401.200-2431.200
AO-7 12 Feb 06:05:46 06:11:09 19° 300° (WNW) 06:16:33 29.400- 29.500
Cubesat XI-IV 12 Feb 06:07:24 06:12:17 34° 99° (E) 06:17:07 437.490
JUGNU 12 Feb 06:15:29 06:19:58 22° 165° (SSE) 06:24:25 437.505
CUBESAT XI-V 12 Feb 06:19:55 06:23:46 25° 263° (W) 06:27:37 437.345
STRAND 1 12 Feb 06:21:50 06:26:22 33° 72° (ENE) 06:30:55 437.568
GOMX 1 12 Feb 06:40:46 06:43:05 14° 94° (E) 06:45:22 467.674
Cosmos 2504 12 Feb 06:41:49 06:47:58 22° 287° (WNW) 06:54:20 435.465 / 435.565
PRISM 12 Feb 06:49:36 06:52:00 15° 70° (ENE) 06:54:24 437.425
LilacSat-2 12 Feb 06:59:14 07:02:55 53° 284° (WNW) 07:06:37 437.200
BRITE-PL 12 Feb 07:24:23 07:28:49 60° 284° (WNW) 07:33:00 437.365/2234.400
O/OREOS (USA 219) 12 Feb 07:25:20 07:29:47 78° 107° (ESE) 07:34:17 437.305
CUTE-I 12 Feb 07:32:57 07:37:36 30° 289° (WNW) 07:42:14 437.470
PHONESAT 2.4 12 Feb 07:34:44 07:35:20 10° 222° (SW) 07:35:56 2401.200-2431.200
HO-68 12 Feb 07:37:43 07:43:08 23° 97° (E) 07:48:29 435.675
DOVE 4 12 Feb 07:45:28 07:49:27 45° 99° (E) 07:53:25 437.250
Cubesat XI-IV 12 Feb 07:48:02 07:52:04 22° 291° (WNW) 07:56:05 437.490
CUTE 1.7 + AOD 2 12 Feb 07:53:43 07:56:55 20° 96° (E) 08:00:07 437.475
SEEDS 12 Feb 07:56:08 07:58:41 15° 95° (E) 08:01:14 437.485
SRMSAT 12 Feb 07:56:43 08:00:44 19° 163° (SSE) 08:04:44 437.500
STRAND 1 12 Feb 08:01:48 08:05:29 20° 264° (W) 08:09:13 437.568
JUGNU 12 Feb 08:03:13 08:08:33 35° 174° (S) 08:13:53 437.505
AAUSAT CUBESAT 2 12 Feb 08:05:19 08:05:59 10° 94° (E) 08:06:40 437.432
GONETS M04 12 Feb 08:13:45 08:21:35 39° 88° (E) 08:29:25
AO-85 12 Feb 08:14:19 08:15:43 11° 104° (ESE) 08:17:07 145.980
GOMX 1 12 Feb 08:17:34 08:21:13 28° 287° (WNW) 08:24:48 467.674
CINEMA 3 12 Feb 08:21:03 08:24:53 36° 99° (E) 08:28:49 145.822/145.860
PRISM 12 Feb 08:23:23 08:27:01 29° 262° (W) 08:30:42 437.425
CANX-2 12 Feb 08:38:17 08:42:36 88° 290° (WNW) 08:46:54 2200.000
ZACube-1 12 Feb 08:55:41 08:57:51 14° 95° (E) 09:00:02 437.345
FUNcube-1 12 Feb 09:02:54 09:05:34 16° 96° (E) 09:08:16 145.935
COMPASS 1 12 Feb 09:11:17 09:15:30 74° 283° (WNW) 09:19:43 437.405
ANTELSAT 12 Feb 09:12:37 09:14:33 13° 70° (ENE) 09:16:27 437.575/2403.000
TIGRISAT 12 Feb 09:18:10 09:20:28 14° 70° (ENE) 09:22:45 435.000
HO-68 12 Feb 09:24:04 09:30:57 51° 289° (WNW) 09:37:49 435.675
CUTE 1.7 + AOD 2 12 Feb 09:29:15 09:32:38 23° 288° (WNW) 09:36:00 437.475
Oscar 11 12 Feb 09:30:37 09:34:52 52° 100° (E) 09:39:07 145.826/435.025
SEEDS 12 Feb 09:30:40 09:34:22 29° 286° (WNW) 09:38:03 437.485
AAUSAT CUBESAT 2 12 Feb 09:37:38 09:41:35 41° 285° (WNW) 09:45:32 437.432
Cosmos 2499 12 Feb 09:38:58 09:47:27 66° 92° (E) 09:56:13 435.465 / 435.565
UWE-3 12 Feb 09:41:53 09:46:09 86° 106° (ESE) 09:50:32 435.000/436.395/437.385
SRMSAT 12 Feb 09:44:14 09:49:27 32° 171° (S) 09:54:40 437.500
CUBEBUG 2 12 Feb 09:46:50 09:50:59 55° 284° (WNW) 09:55:15 437.445
AO-85 12 Feb 09:50:21 09:55:32 68° 298° (WNW) 10:01:00 145.980
JUGNU 12 Feb 09:51:50 09:57:14 37° 184° (S) 10:02:36 437.505
PCSat 12 Feb 09:54:18 09:59:36 60° 111° (ESE) 10:04:56 145.827
CINEMA 3 12 Feb 10:00:00 10:01:42 12° 290° (WNW) 10:03:24 145.822/145.860
RS-15 12 Feb 10:00:30 10:10:07 37° 106° (ESE) 10:20:03 29.354- 29.394
UNISAT 6 12 Feb 10:01:39 10:05:53 55° 76° (ENE) 10:10:05 437.425
GONETS M04 12 Feb 10:10:38 10:18:15 34° 282° (WNW) 10:25:57
POPSAT HIP 1 12 Feb 10:14:24 10:16:46 15° 70° (ENE) 10:19:06 437.405
NANOSAT C BR1 12 Feb 10:17:13 10:19:44 16° 70° (ENE) 10:22:14 145.865
DUCHIFAT 1 12 Feb 10:17:35 10:19:57 15° 70° (ENE) 10:22:19 145.980
HUMSAT D 12 Feb 10:25:50 10:29:54 48° 100° (E) 10:34:01 437.325/437.525
QB50P1 12 Feb 10:25:52 10:29:03 21° 72° (ENE) 10:32:13 145.935-145.965
ZACube-1 12 Feb 10:30:17 10:34:08 34° 286° (WNW) 10:38:05 437.345
DELFI C3 12 Feb 10:30:32 10:34:25 47° 284° (WNW) 10:38:18 145.870
FUNcube-1 12 Feb 10:38:05 10:41:46 29° 286° (WNW) 10:45:30 145.935
AIST 1 12 Feb 10:46:13 10:50:33 63° 276° (W) 10:54:56
ANTELSAT 12 Feb 10:46:53 10:50:53 37° 261° (W) 10:54:52 437.575/2403.000
VELOX 1 12 Feb 10:52:15 10:54:36 14° 95° (E) 10:56:57 145.980
TIGRISAT 12 Feb 10:52:56 10:56:50 33° 261° (W) 11:00:42 435.000
BUGSAT 1 12 Feb 11:06:12 11:09:51 30° 74° (ENE) 11:13:30 437.445
UKube-1 12 Feb 11:06:32 11:09:38 19° 97° (E) 11:12:43 .
AISAT 12 Feb 11:08:19 11:11:54 24° 97° (E) 11:15:27 437.250
POLYITAN 1 12 Feb 11:18:24 11:22:38 77° 257° (WSW) 11:26:52 437.675
QB50P2 12 Feb 11:18:54 11:23:08 73° 259° (WSW) 11:27:22 145.880/145.840
CUBEBUG 1 12 Feb 11:20:01 11:23:40 26° 98° (E) 11:27:18 437.445
DX 1 12 Feb 11:22:36 11:26:39 38° 99° (E) 11:30:39 434.975-435.025
SRMSAT 12 Feb 11:32:50 11:38:16 38° 181° (S) 11:43:41 437.500
Cosmos 2499 12 Feb 11:34:55 11:41:04 21° 287° (WNW) 11:47:21 435.465 / 435.565
ESTCUBE 1 12 Feb 11:40:18 11:44:50 72° 102° (ESE) 11:49:20 437.505/2401.250
PCSat 12 Feb 11:40:29 11:43:20 14° 305° (NW) 11:46:11 145.827
JUGNU 12 Feb 11:41:04 11:45:51 26° 193° (SSW) 11:50:35 437.505
50 SAT 12 Feb 11:45:08 11:48:57 80° 281° (W) 11:52:45 437.505
POPSAT HIP 1 12 Feb 11:48:27 11:52:14 31° 262° (W) 11:56:01 437.405
NANOSAT C BR1 12 Feb 11:51:29 11:55:11 29° 262° (W) 11:58:53 145.865
DUCHIFAT 1 12 Feb 11:51:37 11:55:21 31° 262° (W) 11:59:05 145.980
QB50P1 12 Feb 12:01:23 12:04:40 22° 263° (W) 12:07:57 145.935-145.965
RS-15 12 Feb 12:11:24 12:21:58 50° 303° (WNW) 12:33:08 29.354- 29.394
Oscar 19 12 Feb 12:15:30 12:19:08 20° 69° (ENE) 12:22:46 437.125/150
VELOX 1 12 Feb 12:27:07 12:31:05 34° 287° (WNW) 12:35:03 145.980
UKube-1 12 Feb 12:42:04 12:45:34 24° 288° (WNW) 12:49:03 .
DANDE 12 Feb 12:42:29 12:47:18 24° 71° (ENE) 12:51:09 436.750
BUGSAT 1 12 Feb 12:42:48 12:45:12 15° 264° (W) 12:47:36 437.445
TISAT 1 12 Feb 12:44:40 12:48:19 29° 98° (E) 12:51:57 437.305
AISAT 12 Feb 12:44:58 12:48:11 20° 289° (WNW) 12:51:23 437.250
SPROUT 12 Feb 12:45:52 12:50:06 77° 284° (WNW) 12:54:21 437.525
CUBEBUG 1 12 Feb 12:56:46 12:59:43 18° 289° (WNW) 13:02:39 437.445
DX 1 12 Feb 13:00:28 13:02:27 13° 291° (WNW) 13:04:26 434.975-435.025
Gurwin Techsat 1B 12 Feb 13:08:22 13:12:32 24° 70° (ENE) 13:16:42 435.225
YUBILEINY 12 Feb 13:08:42 13:13:48 16° 72° (ENE) 13:18:51 435.215
JAS-2 12 Feb 13:14:59 13:22:39 66° 75° (ENE) 13:29:43 435.910
SRMSAT 12 Feb 13:22:03 13:27:03 29° 191° (S) 13:32:04 437.500
CUSAT 1 12 Feb 13:27:54 13:32:26 42° 269° (W) 13:35:54 437.405
SO-50 12 Feb 13:28:12 13:32:24 30° 58° (ENE) 13:36:27 436.795
ITAMSAT 1 12 Feb 13:30:31 13:34:08 19° 69° (ENE) 13:37:45 435.822/435.867
JUGNU 12 Feb 13:32:17 13:34:20 12° 201° (SSW) 13:36:24 437.505
ISS 12 Feb 13:38:22 13:41:21 34° 129° (SE) 13:44:21 145.825
Oscar 19 12 Feb 13:53:24 13:58:08 36° 261° (W) 14:02:53 437.125/150
SWISSCUBE 12 Feb 14:04:28 14:09:04 45° 100° (E) 14:13:39 437.505
TISAT 1 12 Feb 14:21:17 14:23:41 15° 290° (WNW) 14:26:04 437.305
DANDE 12 Feb 14:25:26 14:30:05 25° 275° (W) 14:33:49 436.750
RS-15 12 Feb 14:35:07 14:38:07 11° 330° (NNW) 14:41:11 29.354- 29.394
ITUPSAT 1 12 Feb 14:42:40 14:47:29 72° 284° (WNW) 14:52:16 437.325
Gurwin Techsat 1B 12 Feb 14:47:38 14:52:15 30° 262° (W) 14:56:54 435.225
BEESAT 12 Feb 14:49:17 14:54:00 59° 285° (WNW) 14:58:41 436.000
Cosmos 2504 12 Feb 14:50:51 14:54:50 14° 70° (ENE) 14:58:40 435.465 / 435.565
Cosmos 2491 12 Feb 14:59:42 15:08:20 70° 92° (E) 15:16:58 435.465 / 435.565
AO-7 12 Feb 15:02:00 15:10:04 55° 69° (ENE) 15:18:08 29.400- 29.500
YUBILEINY 12 Feb 15:02:29 15:11:18 77° 267° (W) 15:20:03 435.215
JAS-2 12 Feb 15:02:42 15:07:44 19° 265° (W) 15:12:36 435.910
ITAMSAT 1 12 Feb 15:08:32 15:13:16 36° 261° (W) 15:18:03 435.822/435.867
SO-50 12 Feb 15:09:15 15:12:36 20° 251° (WSW) 15:15:53 436.795
SRMSAT 12 Feb 15:12:33 15:15:44 15° 199° (SSW) 15:18:56 437.500
ISS 12 Feb 15:15:59 15:17:52 14° 322° (NW) 15:19:45 145.825
M-CUBED/EXP-1 PRIME 12 Feb 15:16:25 15:19:22 23° 70° (ENE) 15:22:12 437.505
STARS 12 Feb 15:18:46 15:21:17 15° 96° (E) 15:23:46 437.465
AUBIESAT-1 12 Feb 15:23:35 15:26:31 23° 70° (ENE) 15:29:19 437.475
KKS-1 12 Feb 15:41:59 15:46:21 63° 101° (E) 15:50:43 437.445
SWISSCUBE 12 Feb 15:44:06 15:46:25 14° 292° (WNW) 15:48:43 437.505
BEESAT 3 12 Feb 15:56:16 16:00:05 50° 114° (ESE) 16:03:57 437.485
MOZHAYETS 4 12 Feb 15:56:54 16:01:06 33° 98° (E) 16:05:16
HORYU 2 12 Feb 16:00:20 16:04:38 54° 75° (ENE) 16:08:56 437.375
BEESAT 2 12 Feb 16:25:42 16:29:40 72° 115° (ESE) 16:33:41 435.950
Cosmos 2504 12 Feb 16:40:44 16:49:09 82° 266° (W) 16:56:54 435.465 / 435.565
M-CUBED/EXP-1 PRIME 12 Feb 16:51:59 16:53:55 14° 258° (WSW) 16:55:47 437.505
STARS 12 Feb 16:53:46 16:57:38 32° 287° (WNW) 17:01:31 437.465
AO-7 12 Feb 16:56:25 17:02:58 25° 262° (W) 17:09:33 29.400- 29.500
AUBIESAT-1 12 Feb 16:59:05 17:00:59 14° 258° (WSW) 17:02:50 437.475
Cosmos 2491 12 Feb 17:00:12 17:05:43 18° 287° (WNW) 17:11:17 435.465 / 435.565
AIST 2 12 Feb 17:08:10 17:10:39 15° 109° (ESE) 17:13:08 435.215
CUTE-I 12 Feb 17:08:56 17:12:47 21° 69° (ENE) 17:16:38 437.470
Cubesat XI-IV 12 Feb 17:22:52 17:27:23 29° 71° (ENE) 17:31:54 437.490
LilacSat-2 12 Feb 17:34:55 17:38:03 25° 74° (ENE) 17:41:10 437.200
MOZHAYETS 4 12 Feb 17:34:58 17:37:56 17° 290° (WNW) 17:40:54
O/OREOS (USA 219) 12 Feb 17:42:17 17:46:43 47° 70° (ENE) 17:51:08 437.305
GOMX 1 12 Feb 17:43:14 17:44:36 11° 68° (ENE) 17:45:58 467.674
CUBESAT XI-V 12 Feb 18:22:37 18:27:12 57° 285° (WNW) 18:31:46 437.345
BRITE-PL 12 Feb 18:26:15 18:31:55 72° 76° (ENE) 18:37:29 437.365/2234.400
AO-85 12 Feb 18:30:41 18:34:10 19° 53° (NE) 18:37:26 145.980
GONETS M04 12 Feb 18:35:57 18:39:04 12° 70° (ENE) 18:42:11
STRAND 1 12 Feb 18:39:53 18:43:40 20° 96° (E) 18:47:25 437.568
DOVE 4 12 Feb 18:43:56 18:48:04 25° 73° (ENE) 18:52:01 437.250
AIST 2 12 Feb 18:45:09 18:48:50 30° 301° (WNW) 18:52:33 435.215
CUTE-I 12 Feb 18:47:40 18:52:30 36° 261° (W) 18:57:23 437.470
PCSat 12 Feb 18:51:47 18:53:46 12° 54° (NE) 18:55:44 145.827
Cubesat XI-IV 12 Feb 19:03:00 19:07:19 25° 263° (W) 19:11:40 437.490
RS-15 12 Feb 19:09:52 19:19:20 25° 46° (NE) 19:28:48 29.354- 29.394
LilacSat-2 12 Feb 19:10:14 19:12:18 14° 265° (W) 19:14:22 437.200
GOMX 1 12 Feb 19:16:41 19:22:06 69° 259° (W) 19:27:20 467.674
CINEMA 3 12 Feb 19:17:01 19:19:54 17° 71° (ENE) 19:22:42 145.822/145.860
O/OREOS (USA 219) 12 Feb 19:24:37 19:25:36 11° 262° (W) 19:26:36 437.305
CANX-2 12 Feb 19:24:43 19:28:12 26° 73° (ENE) 19:31:42 2200.000
Cosmos 2499 12 Feb 19:43:02 19:46:40 13° 69° (ENE) 19:50:10 435.465 / 435.565
HO-68 12 Feb 19:44:17 19:51:18 60° 72° (ENE) 19:58:20 435.675
COMPASS 1 12 Feb 19:55:37 19:59:09 28° 74° (ENE) 20:02:42 437.405
BRITE-PL 12 Feb 20:09:11 20:10:37 11° 267° (W) 20:12:03 437.365/2234.400
AO-85 12 Feb 20:10:22 20:14:47 36° 250° (WSW) 20:18:50 145.980
PRISM 12 Feb 20:11:26 20:15:33 62° 101° (E) 20:19:38 437.425
CUTE 1.7 + AOD 2 12 Feb 20:13:59 20:18:10 80° 260° (W) 20:22:23 437.475
SEEDS 12 Feb 20:14:47 20:18:56 75° 78° (ENE) 20:23:07 437.485
STRAND 1 12 Feb 20:18:12 20:22:47 33° 288° (WNW) 20:27:22 437.568
Oscar 11 12 Feb 20:19:45 20:22:32 17° 71° (ENE) 20:25:20 145.826/435.025
AAUSAT CUBESAT 2 12 Feb 20:20:45 20:24:42 47° 76° (ENE) 20:28:42 437.432
DOVE 4 12 Feb 20:21:17 20:25:34 26° 262° (W) 20:29:42 437.250
GONETS M04 12 Feb 20:28:01 20:36:53 87° 87° (E) 20:45:45
PCSat 12 Feb 20:32:14 20:37:38 73° 249° (WSW) 20:43:00 145.827
UWE-3 12 Feb 20:32:38 20:36:16 28° 74° (ENE) 20:39:50 435.000/436.395/437.385
CUBEBUG 2 12 Feb 20:38:01 20:42:12 48° 76° (ENE) 20:46:17 437.445
CINEMA 3 12 Feb 20:52:34 20:56:45 33° 261° (W) 21:00:48 145.822/145.860
CANX-2 12 Feb 21:01:14 21:03:59 17° 265° (W) 21:06:46 2200.000
AIST 1 12 Feb 21:01:51 21:04:30 16° 77° (ENE) 21:07:09
DELFI C3 12 Feb 21:09:57 21:13:34 34° 74° (ENE) 21:17:11 145.870
HUMSAT D 12 Feb 21:12:22 21:14:23 13° 70° (ENE) 21:16:23 437.325/437.525
ZACube-1 12 Feb 21:18:46 21:22:59 75° 77° (ENE) 21:27:09 437.345
RS-15 12 Feb 21:20:52 21:33:12 85° 246° (WSW) 21:45:28 29.354- 29.394
FUNcube-1 12 Feb 21:26:08 21:30:21 88° 78° (ENE) 21:34:31 145.935
COMPASS 1 12 Feb 21:32:16 21:34:41 15° 265° (W) 21:37:08 437.405
Cosmos 2499 12 Feb 21:32:35 21:40:42 80° 266° (W) 21:48:09 435.465 / 435.565
HO-68 12 Feb 21:34:34 21:39:15 18° 264° (W) 21:43:58 435.675
ISS 12 Feb 21:47:59 21:50:26 20° 41° (NE) 21:52:53 145.825
Oscar 11 12 Feb 21:54:44 21:58:24 27° 263° (W) 22:02:05 145.826/435.025
UNISAT 6 12 Feb 22:00:47 22:04:05 20° 97° (E) 22:07:25 437.425
